DW8587 Weather Reports


time (UTC)temp
C
wind
direction
speed
KPH
gust
KPH
rain 1hr
cm
rain 24hr
cm
rain mn
cm
humidity
%
barometer
mb
20260905184536 26 43 4.8 8.0 0.00 0.00 0.00 72 1015.6
20260905183035 27 38 0.0 9.7 0.00 0.00 0.00 71 1015.4
20260905181535 27 42 4.8 8.0 0.00 0.00 0.00 69 1015.2
20260905180048 28 39 3.2 6.4 0.00 0.00 0.00 65 1015.0
20260905174533 30 307 1.6 3.2 0.00 0.00 0.00 60 1014.9
20260905173032 30 301 1.6 4.8 0.00 0.00 0.00 59 1014.7
20260905171547 31 298 0.0 0.0 0.00 0.00 0.00 54 1014.6
20260905170031 31 298 0.0 1.6 0.00 0.00 0.00 56 1014.7
20260905164531 31 298 1.6 6.4 0.00 0.00 0.00 56 1014.7
20260905163030 31 327 0.0 3.2 0.00 0.00 0.00 54 1014.5
20260905161529 31 246 1.6 6.4 0.00 0.00 0.00 54 1014.6
20260905160047 31 248 1.6 4.8 0.00 0.00 0.00 56 1014.5
20260905154529 31 302 1.6 8.0 0.00 0.00 0.00 56 1014.6
20260905153033 31 250 3.2 14.5 0.00 0.00 0.00 55 1014.5
20260905151528 31 263 4.8 12.9 0.00 0.00 0.00 54 1014.6
20260905150027 31 217 3.2 8.0 0.00 0.00 0.00 55 1014.5
20260905144529 31 265 6.4 14.5 0.00 0.00 0.00 54 1014.7
20260905143025 31 243 6.4 11.3 0.00 0.00 0.00 53 1014.6
20260905141525 32 257 8.0 12.9 0.00 0.00 0.00 52 1014.7
20260905140023 32 300 4.8 14.5 0.00 0.00 0.00 51 1014.8
20260905134521 31 263 9.7 16.1 0.00 0.00 0.00 51 1014.8
20260905133025 31 252 4.8 11.3 0.00 0.00 0.00 52 1014.9
20260905131521 32 223 3.2 11.3 0.00 0.00 0.00 52 1015.2
20260905130019 32 217 3.2 9.7 0.00 0.00 0.00 54 1015.3
20260905124517 31 279 3.2 9.7 0.00 0.00 0.00 53 1015.3
20260905123014 31 241 1.6 11.3 0.00 0.00 0.00 56 1015.4
20260905121512 31 207 1.6 12.9 0.00 0.00 0.00 55 1015.5
20260905120023 30 294 6.4 14.5 0.00 0.00 0.00 56 1015.6
20260905114509 30 236 4.8 12.9 0.00 0.00 0.00 56 1015.7
20260905113007 30 240 4.8 12.9 0.00 0.00 0.00 57 1015.8
20260905111505 30 245 3.2 11.3 0.00 0.00 0.00 58 1015.8
20260905110011 29 250 1.6 9.7 0.00 0.00 0.00 57 1015.8
20260905104505 29 305 3.2 14.5 0.00 0.00 0.00 59 1015.8
20260905103104 28 298 4.8 14.5 0.00 0.00 0.00 63 1015.9
20260905101601 28 238 4.8 11.3 0.00 0.00 0.00 60 1016.0
20260905100100 28 256 3.2 11.3 0.00 0.00 0.00 61 1016.0
20260905094555 27 319 4.8 11.3 0.00 0.00 0.00 62 1016.1
20260905093107 27 232 3.2 8.0 0.00 0.00 0.00 62 1016.0
20260905091554 27 306 1.6 6.4 0.00 0.00 0.00 60 1016.0
20260905090047 26 295 1.6 4.8 0.00 0.00 0.00 65 1016.1
20260905084542 25 290 3.2 9.7 0.00 0.00 0.00 67 1016.0
20260905083040 25 347 4.8 14.5 0.00 0.00 0.00 69 1015.9
20260905081539 25 331 4.8 9.7 0.00 0.00 0.00 68 1015.8
20260905080039 25 347 1.6 6.4 0.00 0.00 0.00 68 1015.7
20260905074538 25 301 1.6 4.8 0.00 0.00 0.00 68 1015.6
20260905073038 24 186 0.0 0.0 0.00 0.00 0.00 70 1015.6
20260905071534 23 186 0.0 3.2 0.00 0.00 0.00 74 1015.6
20260905070044 22 186 0.0 1.6 0.00 0.00 0.00 77 1015.6
20260905064537 22 166 3.2 4.8 0.00 0.00 0.00 76 1015.5
20260905063022 22 55 0.0 3.2 0.00 0.00 0.00 76 1015.4
20260905061519 21 55 3.2 6.4 0.00 0.00 0.00 77 1015.4
20260905060021 21 45 0.0 0.0 0.00 0.00 0.00 78 1015.3
20260905054523 20 45 0.0 3.2 0.00 0.00 0.00 82 1015.2
20260905053010 19 29 4.8 8.0 0.00 0.00 0.00 83 1015.2
20260905051515 19 344 1.6 4.8 0.00 0.00 0.00 83 1015.0
20260905050006 19 48 1.6 4.8 0.00 0.00 0.00 83 1014.8
20260905044503 19 48 1.6 3.2 0.00 0.00 0.00 82 1014.8
20260905043002 19 48 0.0 6.4 0.00 0.00 0.00 82 1014.5
20260905041501 20 40 3.2 6.4 0.00 0.00 0.00 81 1014.5
20260905040001 20 22 4.8 9.7 0.00 0.00 0.00 80 1014.6
20260905034608 20 44 3.2 8.0 0.00 0.00 0.00 80 1014.5
20260905033058 20 41 6.4 9.7 0.00 0.00 0.00 80 1014.7
20260905031557 20 55 4.8 8.0 0.00 0.00 0.00 80 1014.8
20260905030116 20 26 3.2 8.0 0.00 0.00 0.00 80 1014.9
20260905024557 20 41 1.6 6.4 0.00 0.00 0.00 80 1015.0
20260905023055 20 42 1.6 4.8 0.00 0.00 0.00 80 1014.9
20260905021553 20 42 0.0 4.8 0.00 0.00 0.00 79 1014.8
20260905020052 20 42 0.0 3.2 0.00 0.00 0.00 79 1015.0
20260905014556 20 31 0.0 4.8 0.00 0.00 0.00 78 1015.0
20260905013052 20 5 3.2 8.0 0.00 0.00 0.00 78 1015.0
20260905011551 20 38 1.6 4.8 0.00 0.00 0.00 77 1015.0
20260905010047 20 38 4.8 6.4 0.00 0.00 0.00 76 1015.2
20260905004547 20 32 4.8 8.0 0.00 0.00 0.00 74 1015.1
20260905003044 20 34 3.2 8.0 0.00 0.00 0.00 74 1015.3
20260905001543 20 40 4.8 6.4 0.00 0.00 0.00 73 1015.4
20260905000042 20 40 4.8 8.0 0.00 0.00 0.00 73 1015.5
20260904234545 20 44 4.8 8.0 0.00 0.00 0.00 72 1015.6
20260904233037 20 45 3.2 8.0 0.00 0.00 0.00 72 1015.6
20260904231536 21 344 1.6 4.8 0.00 0.00 0.00 72 1015.6
20260904230035 21 340 3.2 8.0 0.00 0.00 0.00 72 1015.6
20260904224533 21 43 1.6 4.8 0.00 0.00 0.00 72 1015.8
20260904223043 21 44 4.8 9.7 0.00 0.00 0.00 72 1015.8
20260904221543 21 48 3.2 6.4 0.00 0.00 0.00 72 1015.6
20260904220026 21 49 3.2 6.4 0.00 0.00 0.00 72 1015.8
20260904214524 22 355 3.2 6.4 0.00 0.00 0.00 74 1015.8
20260904213024 22 44 3.2 8.0 0.00 0.00 0.00 73 1015.9
20260904211530 22 17 3.2 4.8 0.00 0.00 0.00 72 1016.0
20260904210023 23 42 1.6 6.4 0.00 0.00 0.00 72 1016.2
20260904204527 23 42 1.6 3.2 0.00 0.00 0.00 70 1016.2
20260904203030 23 44 0.0 4.8 0.00 0.00 0.00 71 1016.3
20260904201529 23 44 1.6 4.8 0.00 0.00 0.00 72 1016.4
20260904200022 25 56 1.6 4.8 0.00 0.00 0.00 70 1016.2
20260904194548 25 81 3.2 4.8 0.00 0.00 0.00 69 1016.1
20260904193034 25 179 1.6 3.2 0.00 0.00 0.00 70 1016.0
20260904191520 25 179 0.0 1.6 0.00 0.00 0.00 69 1015.9
20260904190019 26 35 1.6 4.8 0.00 0.00 0.00 69 1015.7